Tracking 29892 objects as of 21-Nov-2024
HD Live streaming from Space Station
objects crossing your sky now

STARLINK-32274

Track STARLINK-32274 now!
10-day predictions
STARLINK-32274 is classified as:


NORAD ID: 60922
Int'l Code: 2024-154V
Perigee: 480.5 km
Apogee: 484.1 km
Inclination: 53.2 °
Period: 94.1 minutes
Semi major axis: 6853 km
RCS: Unknown
Launch date: August 31, 2024
Source: United States (US)
Launch site: AIR FORCE EASTERN TEST RANGE (AFETR)
Your satellite tracking list
Your tracking list is empty




NASA's NSSDC Master Catalog

Two Line Element Set (TLE):
1 60922U 24154V   24325.04629017 -.00002789  00000-0 -82010-4 0  9993
2 60922  53.1629 328.5989 0002609  83.7445 276.3853 15.30212622 13674
Source of the keplerian elements: AFSPC